VA7NIC-10 Weather Reports


Display with metric or nautical units.
time (UTC)temp
F
wind
direction
speed
MPH
gust
MPH
rain 1hr
in
rain 24hr
in
rain mn
in
humidity
%
barometer
mb
20260504150701 54 359 0.0 0.0 0.00 0.00 0.00 82 1009.7
20260504140702 53 359 0.0 0.0 0.00 0.00 0.00 78 1009.3
20260504130701 54 359 0.0 0.0 0.00 0.00 0.00 76 1009.0
20260504110701 56 359 0.0 0.0 0.00 0.00 0.00 68 1008.9
20260504080701 61 359 0.0 0.0 0.00 0.00 0.00 55 1008.9
20260504050701 69 359 0.0 0.0 0.00 0.00 0.00 41 1008.6
20260504045201 70 359 0.0 0.0 0.00 0.00 0.00 40 1008.6
20260504043701 72 359 0.0 0.0 0.00 0.00 0.00 38 1008.5
20260504042201 74 359 0.0 0.0 0.00 0.00 0.00 35 1008.6
20260504040701 76 359 0.0 0.0 0.00 0.00 0.00 31 1008.5
20260504035201 76 359 0.0 0.0 0.00 0.00 0.00 29 1008.5
20260504033701 77 359 0.0 0.0 0.00 0.00 0.00 30 1008.5
20260504032201 78 359 0.0 0.0 0.00 0.00 0.00 29 1008.6
20260504030701 79 359 0.0 0.0 0.00 0.00 0.00 27 1008.7
20260504025201 79 359 0.0 0.0 0.00 0.00 0.00 25 1008.7
20260504023702 80 359 0.0 0.0 0.00 0.00 0.00 24 1008.7
20260504022202 80 359 0.0 0.0 0.00 0.00 0.00 25 1008.7
20260504020702 80 359 0.0 0.0 0.00 0.00 0.00 23 1008.8
20260504015202 81 359 0.0 3.0 0.00 0.00 0.00 23 1008.9
20260504013701 81 359 0.0 1.0 0.00 0.00 0.00 21 1009.0
20260504012201 81 359 0.0 1.0 0.00 0.00 0.00 21 1009.1
20260504010701 81 359 0.0 0.0 0.00 0.00 0.00 22 1009.1
20260504005201 82 359 0.0 0.0 0.00 0.00 0.00 22 1009.3
20260504003701 82 359 0.0 0.0 0.00 0.00 0.00 21 1009.4
20260504002201 82 359 0.0 0.0 0.00 0.00 0.00 19 1009.6
20260504000701 82 359 0.0 0.0 0.00 0.00 0.00 20 1009.7
20260503235201 82 18 0.0 0.0 0.00 0.00 0.00 20 1009.8
20260503233701 82 39 0.0 1.0 0.00 0.00 0.00 21 1010.0
20260503232201 82 317 0.0 0.0 0.00 0.00 0.00 21 1010.2
20260503230702 82 41 0.0 0.0 0.00 0.00 0.00 22 1010.3
20260503225202 82 334 0.0 0.0 0.00 0.00 0.00 24 1010.4
20260503223702 82 332 0.0 0.0 0.00 0.00 0.00 24 1010.6
20260503222202 82 19 0.0 0.0 0.00 0.00 0.00 24 1010.8
20260503220702 82 327 0.0 0.0 0.00 0.00 0.00 25 1010.8
20260503215202 81 13 0.0 0.0 0.00 0.00 0.00 26 1011.0
20260503213701 81 242 0.0 0.0 0.00 0.00 0.00 28 1011.1
20260503212201 81 4 0.0 0.0 0.00 0.00 0.00 30 1011.2
20260503210701 81 62 0.0 0.0 0.00 0.00 0.00 31 1011.4
20260503205201 81 46 0.0 0.0 0.00 0.00 0.00 29 1011.6
20260503203701 80 10 0.0 0.0 0.00 0.00 0.00 31 1011.9
20260503202201 79 352 0.0 0.0 0.00 0.00 0.00 37 1012.2
20260503200701 78 137 0.0 0.0 0.00 0.00 0.00 40 1012.3
20260503195201 78 36 0.0 0.0 0.00 0.00 0.00 37 1012.6
20260503193701 78 37 0.0 0.0 0.00 0.00 0.00 39 1012.7
20260503192201 77 22 0.0 0.0 0.00 0.00 0.00 38 1012.8
20260503190702 75 20 0.0 0.0 0.00 0.00 0.00 42 1013.0
20260503185202 74 359 0.0 0.0 0.00 0.00 0.00 46 1013.1
20260503183702 73 359 0.0 0.0 0.00 0.00 0.00 47 1013.3
20260503182202 72 359 0.0 0.0 0.00 0.00 0.00 47 1013.4
20260503180701 70 38 0.0 0.0 0.00 0.00 0.00 49 1013.6
20260503175201 69 22 0.0 0.0 0.00 0.00 0.00 52 1013.7
20260503173701 67 359 0.0 0.0 0.00 0.00 0.00 52 1013.8
20260503172202 65 359 0.0 0.0 0.00 0.00 0.00 52 1014.0
20260503170701 64 337 0.0 0.0 0.00 0.00 0.00 56 1014.1